Weather History for Jefferson, NC

Change the Weather History Date:

Wednesday, March 19, 2014

  Actual Average Record
Temperature  
Mean Temperature 42 °F -  
Max Temperature 51 °F 56 °F 74 °F (1968)
Min Temperature 33 °F 32 °F 11 °F (1967)
Degree Days  
Heating Degree Days 23    
Moisture  
Dew Point 37 °F    
Average Humidity 87    
Maximum Humidity 99    
Minimum Humidity 56    
Precipitation  
Precipitation 0.00 in - - ()
Sea Level Pressure  
Sea Level Pressure 30.01 in    
Wind  
Wind Speed 3 mph (SSE)    
Max Wind Speed 22 mph    
Max Gust Speed 32 mph    
Visibility 5 miles    
Events Fog    
Averages and records for this station are not official NWS values.
T = Trace of Precipitation, MM = Missing Value Source: NWS Daily Summary

Daily Weather History Graph

Daily Weather History Graph

Search for Another Location

Airport:

Trip Planner

Search our weather history database for the weather conditions in past years. The results will help you decide how hot, cold, wet, or windy it might be!

Date:

Astronomy

Mar. 19, 2014 Rise Set
Actual Time 7:30 AM EDT 7:36 PM EDT
Civil Twilight 7:05 AM EDT 8:02 PM EDT
Nautical Twilight 6:35 AM EDT 8:32 PM EDT
Astronomical Twilight 6:04 AM EDT 9:02 PM EDT
Moon 10:47 PM EDT (3/19) 9:00 AM EDT (3/19)
Length of Visible Light 12h 57m
Length of Day
12h 05m
Waning Gibbous, 91% of the Moon is Illuminated
Mar 19
Waning Gibbous
Mar 23
Last Quarter
Mar 30
New
Apr 7
First Quarter
Apr 15
Full

Hourly Weather History & Observations

Time (EDT) Temp. Windchill Dew Point Humidity Pressure Visibility Wind Dir Wind Speed Gust Speed Precip Events Conditions
12:15 AM 34.2 °F - 33.6 °F 98% 30.09 in 0.5 mi Calm Calm - N/A Fog Fog
12:35 AM 33.8 °F 30.8 °F 33.3 °F 98% 30.08 in 0.5 mi South 3.5 mph - N/A Fog Fog
12:55 AM 33.8 °F - 33.1 °F 97% 30.09 in 0.5 mi Calm Calm - N/A Fog Fog
1:15 AM 33.8 °F - 33.3 °F 98% 30.09 in 0.5 mi Calm Calm - N/A Fog Fog
1:35 AM 33.8 °F - 33.3 °F 98% 30.09 in 0.2 mi Calm Calm - N/A Fog Fog
1:55 AM 33.8 °F - 33.3 °F 98% 30.09 in 0.5 mi Calm Calm - N/A Fog Fog
2:15 AM 33.8 °F - 33.3 °F 98% 30.10 in 0.2 mi Calm Calm - N/A Fog Fog
2:35 AM 34.0 °F - 33.4 °F 98% 30.11 in 0.2 mi Calm Calm - N/A Fog Fog
2:55 AM 33.8 °F - 33.3 °F 98% 30.10 in 0.2 mi Calm Calm - N/A Fog Fog
3:15 AM 34.0 °F 31.0 °F 33.4 °F 98% 30.09 in 0.2 mi SSE 3.5 mph - N/A Fog Fog
3:35 AM 33.8 °F - 33.3 °F 98% 30.08 in 0.2 mi Calm Calm - N/A Fog Fog
3:55 AM 34.0 °F - 33.4 °F 98% 30.08 in 0.2 mi Calm Calm - N/A Fog Fog
4:15 AM 34.3 °F - 33.8 °F 98% 30.07 in 0.2 mi Calm Calm - N/A Fog Fog
4:35 AM 34.2 °F - 33.8 °F 99% 30.06 in 0.2 mi Calm Calm - N/A Fog Fog
4:55 AM 34.2 °F - 33.8 °F 99% 30.06 in 0.2 mi Calm Calm - N/A Fog Fog
5:15 AM 34.7 °F - 34.2 °F 98% 30.06 in 0.2 mi Calm Calm - N/A Fog Fog
5:35 AM 34.7 °F - 34.2 °F 98% 30.06 in 0.2 mi Calm Calm - N/A Fog Fog
5:55 AM 34.9 °F - 34.3 °F 98% 30.06 in 0.2 mi Calm Calm - N/A Fog Fog
6:15 AM 35.2 °F - 34.7 °F 98% 30.07 in 0.2 mi Calm Calm - N/A Fog Fog
6:35 AM 35.4 °F - 34.7 °F 97% 30.06 in 0.2 mi Calm Calm - N/A Fog Fog
6:55 AM 35.8 °F 33.0 °F 35.2 °F 98% 30.06 in 0.5 mi SE 3.5 mph - N/A Fog Fog
7:15 AM 36.3 °F - 35.6 °F 97% 30.06 in 1.0 mi Calm Calm - N/A   Overcast
7:35 AM 37.4 °F 34.9 °F 36.7 °F 97% 30.06 in 3.0 mi ESE 3.5 mph - N/A   Overcast
7:55 AM 36.9 °F - 36.1 °F 97% 30.06 in 0.5 mi Calm Calm - N/A Fog Fog
8:15 AM 36.1 °F - 35.6 °F 98% 30.06 in 0.2 mi Calm Calm - N/A Fog Fog
8:35 AM 36.0 °F 32.1 °F 35.4 °F 98% 30.06 in 0.2 mi SE 4.6 mph - N/A Fog Fog
8:55 AM 36.1 °F - 35.6 °F 98% 30.06 in 0.2 mi Calm Calm - N/A Fog Fog
9:15 AM 36.5 °F 32.7 °F 35.8 °F 97% 30.06 in 0.2 mi ESE 4.6 mph - N/A Fog Fog
9:35 AM 36.5 °F 32.7 °F 35.8 °F 97% 30.06 in 0.2 mi ESE 4.6 mph - N/A Fog Fog
9:55 AM 37.4 °F 32.8 °F 36.5 °F 97% 30.05 in 0.2 mi ESE 5.8 mph - N/A Fog Fog
10:15 AM 37.4 °F 32.8 °F 36.7 °F 97% 30.05 in 0.2 mi East 5.8 mph - N/A Fog Fog
10:35 AM 38.3 °F - 37.4 °F 97% 30.05 in 0.2 mi Calm Calm - N/A Fog Fog
10:55 AM 38.3 °F 32.5 °F 37.6 °F 97% 30.05 in 0.2 mi ESE 8.1 mph - N/A Fog Fog
11:15 AM 39.2 °F - 38.5 °F 97% 30.05 in 0.2 mi Calm Calm - N/A Fog Fog
11:35 AM 42.8 °F 39.3 °F 41.9 °F 97% 30.04 in 10.0 mi SSE 5.8 mph - N/A   Overcast
11:55 AM 43.3 °F 39.2 °F 42.4 °F 97% 30.03 in 10.0 mi SSE 6.9 mph - N/A   Overcast
12:15 PM 44.6 °F 39.7 °F 43.3 °F 95% 30.02 in 10.0 mi South 9.2 mph - N/A   Overcast
12:35 PM 45.5 °F 42.5 °F 44.4 °F 96% 30.01 in 10.0 mi South 5.8 mph - N/A   Overcast
12:55 PM 46.6 °F - 45.3 °F 95% 30.00 in 10.0 mi SSE 8.1 mph - N/A   Overcast
1:15 PM 46.6 °F - 43.5 °F 89% 29.99 in 10.0 mi SSE 4.6 mph - N/A   Overcast
1:35 PM 47.3 °F - 43.9 °F 88% 30.00 in 10.0 mi SSE 8.1 mph - N/A   Overcast
1:55 PM 46.9 °F - 43.0 °F 86% 29.99 in 10.0 mi SSE 8.1 mph - N/A   Overcast
2:15 PM 48.7 °F - 43.0 °F 80% 29.97 in 10.0 mi South 6.9 mph - N/A   Overcast
2:35 PM 50.7 °F - 43.2 °F 75% 29.96 in 10.0 mi SSE 6.9 mph - N/A   Mostly Cloudy
2:55 PM 49.6 °F - 43.0 °F 78% 29.96 in 10.0 mi SSE 5.8 mph - N/A   Mostly Cloudy
3:15 PM 49.1 °F - 42.4 °F 78% 29.95 in 10.0 mi SSE 9.2 mph - N/A   Mostly Cloudy
3:35 PM 49.6 °F - 42.3 °F 76% 29.94 in 10.0 mi SSE 8.1 mph - N/A   Scattered Clouds
3:55 PM 50.2 °F - 41.9 °F 73% 29.93 in 10.0 mi South 8.1 mph - N/A   Scattered Clouds
4:15 PM 50.9 °F - 42.1 °F 72% 29.92 in 10.0 mi South 8.1 mph - N/A   Clear
4:35 PM 49.8 °F - 41.9 °F 74% 29.92 in 10.0 mi SE 6.9 mph - N/A   Clear
4:55 PM 48.2 °F - 41.9 °F 79% 29.92 in 10.0 mi SSE 6.9 mph - N/A   Scattered Clouds
5:15 PM 46.0 °F 41.9 °F 41.0 °F 83% 29.92 in 10.0 mi SE 8.1 mph - N/A   Scattered Clouds
5:40 PM 44.2 °F 41.0 °F 40.8 °F 88% 29.92 in 10.0 mi SE 5.8 mph - N/A   Mostly Cloudy
5:55 PM 43.7 °F 40.3 °F 40.6 °F 89% 29.92 in 10.0 mi SE 5.8 mph - N/A   Overcast
6:15 PM 43.0 °F 40.3 °F 40.5 °F 91% 29.92 in 10.0 mi SE 4.6 mph - N/A   Mostly Cloudy
6:35 PM 42.1 °F 39.2 °F 40.1 °F 93% 29.91 in 7.0 mi SSE 4.6 mph - N/A   Overcast
6:55 PM 41.9 °F 38.2 °F 40.1 °F 93% 29.92 in 5.0 mi SSE 5.8 mph - N/A   Overcast
7:15 PM 40.6 °F 37.5 °F 39.4 °F 95% 29.92 in 0.5 mi SE 4.6 mph - N/A Fog Fog
7:35 PM 40.5 °F 37.3 °F 39.4 °F 96% 29.93 in 1.8 mi South 4.6 mph - N/A   Overcast
7:55 PM 40.5 °F - 39.2 °F 95% 29.93 in 5.0 mi Calm Calm - N/A   Mostly Cloudy
8:15 PM 51.4 °F - 37.0 °F 58% 29.94 in 10.0 mi West 21.9 mph 28.8 mph N/A   Mostly Cloudy
8:35 PM 50.4 °F - 36.5 °F 59% 29.94 in 10.0 mi West 20.7 mph 32.2 mph N/A   Mostly Cloudy
8:55 PM 50.0 °F - 34.9 °F 56% 29.95 in 10.0 mi WSW 17.3 mph 25.3 mph N/A   Mostly Cloudy
9:15 PM 49.1 °F - 34.3 °F 57% 29.95 in 10.0 mi West 12.7 mph 25.3 mph N/A   Mostly Cloudy
9:35 PM 48.2 °F - 33.8 °F 58% 29.97 in 10.0 mi West 5.8 mph 16.1 mph N/A   Scattered Clouds
9:55 PM 48.2 °F - 33.4 °F 57% 29.97 in 10.0 mi West 6.9 mph 19.6 mph N/A   Mostly Cloudy
10:15 PM 47.7 °F - 32.9 °F 57% 29.97 in 10.0 mi West 9.2 mph - N/A   Mostly Cloudy
10:35 PM 47.5 °F - 33.1 °F 57% 29.96 in 10.0 mi WNW 9.2 mph 25.3 mph N/A   Mostly Cloudy
10:55 PM 47.3 °F - 33.6 °F 59% 29.95 in 10.0 mi West 10.4 mph 16.1 mph N/A   Mostly Cloudy
11:15 PM 47.1 °F - 34.7 °F 62% 29.95 in 10.0 mi West 11.5 mph 21.9 mph N/A   Scattered Clouds
11:35 PM 46.8 °F - 35.2 °F 64% 29.95 in 10.0 mi West 8.1 mph 21.9 mph N/A   Scattered Clouds
11:55 PM 46.8 °F - 35.6 °F 65% 29.94 in 10.0 mi West 18.4 mph 25.3 mph N/A   Mostly Cloudy